When you browse on this site, cookies collect data to enhance your experience and personalize the content and advertising you see.
Visit our Privacy Policy to learn more. By continuing to use the site, you agree to this use of cookies and data.
  • In Romania
  • List of Countries
  • For 7 days
  • Water Temperature
  • Weather Map
  • Weather Widgets
  • user-avatar
    Login

    Hourly Weather Shaki

    Today, 19 September, Thursday

    Time Temperature Precipitation Wind Pressure Humidity
    00:00 +22°C° 0 mm 1 mps 735 mmHg 33%
    01:00 +22°C° 0 mm 1 mps 735 mmHg 35%
    02:00 +20°C° 0 mm 2 mps 734 mmHg 36%
    03:00 +20°C° 0 mm 2 mps 734 mmHg 38%
    04:00 +20°C° 0 mm 2 mps 734 mmHg 38%
    05:00 +20°C° 0 mm 2 mps 735 mmHg 39%
    06:00 +20°C° 0 mm 3 mps 735 mmHg 39%
    07:00 +24°C° 0 mm 3 mps 735 mmHg 34%
    08:00 +26°C° 0 mm 3 mps 735 mmHg 29%
    09:00 +28°C° 0 mm 3 mps 735 mmHg 24%
    10:00 +30°C° 0 mm 4 mps 735 mmHg 22%
    11:00 +33°C° 0 mm 4 mps 736 mmHg 19%
    12:00 +34°C° 0 mm 4 mps 736 mmHg 17%
    13:00 +35°C° 0 mm 4 mps 736 mmHg 16%
    14:00 +35°C° 0 mm 4 mps 736 mmHg 16%
    15:00 +35°C° 0 mm 4 mps 736 mmHg 15%
    16:00 +33°C° 0 mm 3 mps 736 mmHg 18%
    17:00 +30°C° 0 mm 2 mps 736 mmHg 21%
    18:00 +27°C° 0 mm 1 mps 736 mmHg 24%
    19:00 +26°C° 0 mm 2 mps 736 mmHg 33%
    20:00 +25°C° 0 mm 3 mps 737 mmHg 42%
    21:00 +23°C° 0 mm 4 mps 737 mmHg 51%
    22:00 +22°C° 0 mm 4 mps 737 mmHg 55%
    23:00 +21°C° 0 mm 4 mps 737 mmHg 59%

    Tomorrow, 20 September, Friday

    Time Temperature Precipitation Wind Pressure Humidity
    00:00 +21°C° 0 mm 3 mps 737 mmHg 64%
    01:00 +20°C° 0 mm 3 mps 737 mmHg 68%
    02:00 +20°C° 0 mm 2 mps 736 mmHg 72%
    03:00 +20°C° 0 mm 1 mps 736 mmHg 76%
    04:00 +20°C° 0 mm 1 mps 736 mmHg 76%
    05:00 +20°C° 0 mm 1 mps 736 mmHg 76%
    06:00 +20°C° 0 mm 1 mps 736 mmHg 77%
    07:00 +20°C° 0 mm 2 mps 736 mmHg 73%
    08:00 +23°C° 0 mm 2 mps 735 mmHg 70%
    09:00 +25°C° 0 mm 3 mps 735 mmHg 66%
    10:00 +25°C° 0 mm 2 mps 735 mmHg 65%
    11:00 +26°C° 0 mm 2 mps 734 mmHg 63%
    12:00 +26°C° 0 mm 2 mps 734 mmHg 61%
    13:00 +27°C° 0 mm 2 mps 733 mmHg 57%
    14:00 +28°C° 0 mm 2 mps 732 mmHg 54%
    15:00 +29°C° 0 mm 2 mps 732 mmHg 50%
    16:00 +27°C° 0 mm 2 mps 732 mmHg 53%
    17:00 +26°C° 0 mm 1 mps 731 mmHg 56%
    18:00 +25°C° 0 mm 1 mps 731 mmHg 59%
    19:00 +24°C° 0 mm 1 mps 731 mmHg 60%
    20:00 +23°C° 0 mm 1 mps 731 mmHg 62%
    21:00 +21°C° 0 mm 0 mps 731 mmHg 63%
    22:00 +20°C° 0 mm 0 mps 731 mmHg 63%
    23:00 +20°C° 0 mm 0 mps 730 mmHg 63%

    Day after tomorrow, 21 September, Saturday

    Time Temperature Precipitation Wind Pressure Humidity
    00:00 +20°C° 0 mm 0 mps 730 mmHg 64%
    01:00 +22°C° 0 mm 1 mps 730 mmHg 64%
    02:00 +21°C° 0 mm 1 mps 729 mmHg 65%
    03:00 +21°C° 0 mm 1 mps 729 mmHg 66%
    04:00 +20°C° 0 mm 2 mps 729 mmHg 67%
    05:00 +20°C° 0 mm 2 mps 729 mmHg 68%
    06:00 +20°C° 0 mm 2 mps 729 mmHg 69%
    07:00 +22°C° 0 mm 3 mps 729 mmHg 63%
    08:00 +25°C° 0 mm 3 mps 730 mmHg 57%
    09:00 +27°C° 0 mm 4 mps 730 mmHg 51%
    10:00 +28°C° 0 mm 4 mps 730 mmHg 46%
    11:00 +29°C° 0 mm 4 mps 730 mmHg 42%
    12:00 +30°C° 0 mm 4 mps 730 mmHg 37%
    13:00 +30°C° 0 mm 4 mps 730 mmHg 36%
    14:00 +30°C° 0 mm 5 mps 730 mmHg 35%
    15:00 +30°C° 0 mm 6 mps 730 mmHg 34%
    16:00 +28°C° 0 mm 6 mps 730 mmHg 37%
    17:00 +24°C° 0 mm 7 mps 731 mmHg 41%
    18:00 +21°C° 0 mm 8 mps 732 mmHg 45%
    19:00 +21°C° 0 mm 8 mps 733 mmHg 47%
    20:00 +20°C° 0 mm 7 mps 733 mmHg 48%
    21:00 +20°C° 0 mm 7 mps 734 mmHg 50%
    22:00 +18°C° 0.1 mm 7 mps 735 mmHg 50%
    23:00 +17°C° 0.1 mm 6 mps 735 mmHg 50%

    22 September, Sunday

    Time Temperature Precipitation Wind Pressure Humidity
    00:00 +17°C° 0.1 mm 5 mps 736 mmHg 50%
    01:00 +16°C° 0 mm 5 mps 736 mmHg 49%
    02:00 +15°C° 0 mm 5 mps 737 mmHg 48%
    03:00 +14°C° 0 mm 5 mps 737 mmHg 48%
    04:00 +13°C° 0 mm 4 mps 737 mmHg 52%
    05:00 +12°C° 0 mm 3 mps 738 mmHg 56%
    06:00 +13°C° 0 mm 1 mps 738 mmHg 60%
    07:00 +15°C° 0 mm 2 mps 739 mmHg 54%
    08:00 +17°C° 0 mm 2 mps 739 mmHg 49%
    09:00 +19°C° 0 mm 2 mps 739 mmHg 43%
    10:00 +20°C° 0 mm 2 mps 739 mmHg 39%
    11:00 +21°C° 0 mm 2 mps 739 mmHg 36%
    12:00 +22°C° 0 mm 3 mps 739 mmHg 32%
    13:00 +23°C° 0 mm 2 mps 738 mmHg 32%
    14:00 +23°C° 0 mm 2 mps 738 mmHg 32%
    15:00 +23°C° 0 mm 2 mps 737 mmHg 32%
    16:00 +21°C° 0 mm 2 mps 737 mmHg 36%
    17:00 +19°C° 0 mm 2 mps 737 mmHg 40%
    18:00 +18°C° 0 mm 2 mps 737 mmHg 44%
    19:00 +17°C° 0 mm 2 mps 737 mmHg 45%
    20:00 +16°C° 0 mm 2 mps 738 mmHg 47%
    21:00 +16°C° 0 mm 2 mps 738 mmHg 49%
    22:00 +15°C° 0 mm 2 mps 738 mmHg 53%
    23:00 +15°C° 0 mm 2 mps 737 mmHg 57%

    23 September, Monday

    Time Temperature Precipitation Wind Pressure Humidity
    00:00 +14°C° 0 mm 1 mps 737 mmHg 61%
    01:00 +14°C° 0 mm 1 mps 737 mmHg 62%
    02:00 +14°C° 0 mm 1 mps 737 mmHg 63%
    03:00 +13°C° 0 mm 1 mps 737 mmHg 64%
    04:00 +13°C° 0 mm 1 mps 737 mmHg 63%
    05:00 +12°C° 0 mm 0 mps 737 mmHg 63%
    06:00 +12°C° 0 mm 0 mps 737 mmHg 62%
    07:00 +15°C° 0 mm 1 mps 738 mmHg 58%
    08:00 +18°C° 0 mm 1 mps 738 mmHg 54%
    09:00 +20°C° 0 mm 1 mps 738 mmHg 50%
    10:00 +21°C° 0 mm 1 mps 738 mmHg 46%
    11:00 +23°C° 0 mm 1 mps 738 mmHg 43%
    12:00 +24°C° 0 mm 1 mps 738 mmHg 39%
    13:00 +24°C° 0 mm 2 mps 737 mmHg 38%
    14:00 +25°C° 0 mm 2 mps 737 mmHg 38%
    15:00 +25°C° 0 mm 3 mps 737 mmHg 37%
    16:00 +24°C° 0 mm 3 mps 737 mmHg 42%
    17:00 +21°C° 0 mm 3 mps 737 mmHg 47%
    18:00 +20°C° 0 mm 2 mps 737 mmHg 53%
    19:00 +19°C° 0 mm 3 mps 738 mmHg 59%
    20:00 +18°C° 0 mm 3 mps 738 mmHg 66%
    21:00 +17°C° 0 mm 3 mps 739 mmHg 73%
    22:00 +17°C° 0 mm 2 mps 738 mmHg 73%
    23:00 +17°C° 0 mm 2 mps 738 mmHg 74%

    24 September, Tuesday

    Time Temperature Precipitation Wind Pressure Humidity
    00:00 +17°C° 0 mm 2 mps 738 mmHg 75%
    01:00 +18°C° 0 mm 1 mps 738 mmHg 75%
    02:00 +18°C° 0 mm 1 mps 738 mmHg 74%
    03:00 +18°C° 0 mm 1 mps 738 mmHg 73%
    04:00 +18°C° 0 mm 1 mps 738 mmHg 76%
    05:00 +18°C° 0 mm 1 mps 738 mmHg 79%
    06:00 +18°C° 0 mm 1 mps 738 mmHg 82%
    07:00 +18°C° 0.1 mm 1 mps 738 mmHg 82%
    08:00 +18°C° 0.1 mm 1 mps 738 mmHg 81%
    09:00 +18°C° 0.1 mm 1 mps 738 mmHg 81%
    10:00 +19°C° 0 mm 1 mps 737 mmHg 79%
    11:00 +19°C° 0 mm 1 mps 737 mmHg 76%
    12:00 +20°C° 0 mm 1 mps 737 mmHg 74%
    13:00 +21°C° 0 mm 1 mps 736 mmHg 70%
    14:00 +22°C° 0 mm 1 mps 736 mmHg 65%
    15:00 +23°C° 0 mm 1 mps 735 mmHg 61%
    16:00 +22°C° 0 mm 1 mps 735 mmHg 65%
    17:00 +21°C° 0 mm 1 mps 735 mmHg 69%
    18:00 +19°C° 0 mm 1 mps 734 mmHg 72%
    19:00 +19°C° 0 mm 1 mps 734 mmHg 72%
    20:00 +18°C° 0 mm 1 mps 734 mmHg 72%
    21:00 +16°C° 0 mm 0 mps 734 mmHg 72%
    22:00 +18°C° 0 mm 1 mps 734 mmHg 71%
    23:00 +18°C° 0 mm 1 mps 733 mmHg 71%
    Show more